Simultaneous Nadir Overpasses (SNOs) Predictions

Prediction of SNOs between GOES-14 and NOAA-20 Satellite Orbit:

Table of predicted SNOs for the next 14.0 days since TLE Epoch: 8/15/2025
Index Date Time (GOES-14) GOES-14 Lat,Lon NOAA-20 Lat,Lon Distance(km) Time Diff (sec)
1 08/15/2025 20:53:38 0.90,-108.07 0.00,-112.34 485.36 0
2 08/16/2025 20:36:12 0.89,-108.08 0.98,-107.80 32.87 80
3 08/19/2025 08:36:34 -0.91,-108.09 -0.79,-108.52 49.75 80
4 08/20/2025 08:20:29 -0.90,-108.10 -1.83,-104.00 467.79 80
5 08/21/2025 20:39:46 0.92,-108.12 0.64,-109.30 133.98 80
6 08/22/2025 20:23:41 0.92,-108.14 1.68,-104.77 384.34 80
7 08/24/2025 08:45:29 -0.93,-108.16 -0.52,-110.04 214.07 80
8 08/25/2025 08:24:03 -0.92,-108.17 -1.50,-105.50 303.93 80
9 08/26/2025 20:45:59 0.93,-108.19 0.33,-110.80 297.86 80
10 08/27/2025 20:29:55 0.93,-108.21 1.37,-106.27 220.56 80
11 08/29/2025 08:51:42 -0.93,-108.23 -0.21,-111.54 376.83 80
